Simultaneous Nadir Overpasses (SNOs) Predictions

Prediction of SNOs between METOP-B and NOAA-19 Satellite Orbit:

Table of predicted SNOs for the next 14.0 days since TLE Epoch: 4/1/2015
Index Date (METOP-B) Time (METOP-B) Lat,Lon (METOP-B) SZA (METOP-B ) Date (NOAA-19) Time (NOAA-19) Lat,Lon (NOAA-19) SZA (NOAA-19 ) Distance(km) Time Diff (sec)
1 04/09/2015 20:51:33 74.93,-135.44 67.17 04/09/2015 20:50:21 74.98,-136.63 67.25 34.64 72
2 04/09/2015 21:42:19 -74.75, 31.38 113.02 04/09/2015 21:41:22 -74.74, 31.28 113.02 2.90 57
3 04/09/2015 22:32:59 74.72,-161.37 66.94 04/09/2015 22:32:18 74.70,-161.34 66.93 2.00 41
4 04/09/2015 23:23:42 -74.68, 5.85 113.11 04/09/2015 23:23:24 -74.70, 5.88 113.09 2.52 18
5 04/10/2015 00:14:21 74.70, 173.23 66.90 04/10/2015 00:14:21 74.71, 173.12 66.91 3.67 0
6
